Location: Unspecified
(38.0989°N, 0.6729°W)
Time: 20:45:11
(UTC+01:00)

Amateur Radio Satellites - All Passes

Search period start: 18 January 2018 20:15
Search period end: 19 January 2018 20:15
Location: Unspecified, 38.0989°N, 0.6729°W

Satellite Date Start Highest point End Downlink Frequencies (MHz)
Time Altitude Azimuth
STARS 18 Jan 20:19:44 20:22:39 18° 294° (WNW) 20:25:34 437.465
RS-15 18 Jan 20:25:55 20:35:49 36° 255° (WSW) 20:45:22 29.354- 29.394
FO-29 18 Jan 20:31:36 20:36:02 28° 96° (E) 20:40:30 435.910
XW-2A 18 Jan 20:37:35 20:40:47 36° 262° (W) 20:43:59 145.665 - 145.685
HO-68 18 Jan 20:38:38 20:43:59 22° 266° (W) 20:49:23 435.675
Oscar 11 18 Jan 20:44:16 20:48:37 85° 73° (ENE) 20:53:00 .
PCSat 18 Jan 20:50:18 20:55:45 84° 244° (WSW) 21:01:09 145.827
AAUSAT CUBESAT 2 18 Jan 20:55:44 20:59:07 24° 265° (W) 21:02:31 437.432
CUBEBUG 2 18 Jan 20:57:45 20:58:47 11° 271° (W) 20:59:50 437.445
nSIGHT-1 18 Jan 20:59:33 21:01:03 13° 128° (SE) 21:02:33 .
BEESAT 3 18 Jan 21:01:16 21:04:39 29° 247° (WSW) 21:07:59 437.485
UWE-3 18 Jan 21:07:20 21:09:55 15° 269° (W) 21:12:33 435.000/436.395/437.385
STRAND 1 18 Jan 21:25:30 21:30:04 33° 291° (WNW) 21:34:38 437.568
AO-85 18 Jan 21:33:24 21:37:36 27° 50° (NE) 21:42:00 145.980
ZACube-1 18 Jan 21:37:42 21:40:01 14° 269° (W) 21:42:21 437.345
Max Valier Satellite 18 Jan 21:38:16 21:41:42 36° 73° (ENE) 21:45:10 145.860
BEESAT 2 18 Jan 21:41:58 21:45:45 42° 244° (WSW) 21:49:29 435.950
TIGRISAT 18 Jan 21:43:10 21:45:47 15° 92° (E) 21:48:22 435.000
AO-73 18 Jan 21:46:36 21:48:35 13° 270° (W) 21:50:37 145.935
UNISAT 6 18 Jan 21:56:46 22:00:29 23° 94° (E) 22:04:10 437.425
DELFI C3 18 Jan 21:58:01 22:01:56 75° 260° (W) 22:05:51 145.870
EO-88 18 Jan 22:03:37 22:07:10 49° 75° (ENE) 22:10:43 145.990 - 145.960
FO-29 18 Jan 22:16:40 22:21:08 29° 292° (WNW) 22:25:35 435.910
nSIGHT-1 18 Jan 22:33:46 22:36:52 53° 323° (NW) 22:39:58 .
ESTCUBE 1 18 Jan 22:35:01 22:37:30 15° 65° (ENE) 22:39:58 437.505/2401.250
ISS 18 Jan 22:35:35 22:38:49 80° 321° (NW) 22:42:06 437.550
YUBILEINY 18 Jan 22:45:10 22:51:01 20° 80° (E) 22:56:51 435.215
PRISM 18 Jan 22:59:55 23:02:59 20° 95° (E) 23:06:02 437.425
AO-85 18 Jan 23:13:24 23:18:09 42° 245° (WSW) 23:23:06 145.980
Max Valier Satellite 18 Jan 23:13:57 23:15:38 13° 268° (W) 23:17:20 145.860
TIGRISAT 18 Jan 23:18:08 23:22:42 52° 286° (WNW) 23:27:15 435.000
AIST 2D 18 Jan 23:20:13 23:22:02 14° 93° (E) 23:23:52 435.315
LO-87 18 Jan 23:31:35 23:35:07 78° 77° (ENE) 23:38:42 145.935 - 145.965
UNISAT 6 18 Jan 23:32:58 23:37:10 33° 289° (WNW) 23:41:21 437.425
EO-79 18 Jan 23:55:13 23:56:50 12° 91° (E) 23:58:28 145.935-145.965
ESTCUBE 1 19 Jan 00:09:25 00:13:50 52° 260° (W) 00:18:16 437.505/2401.250
nSIGHT-1 19 Jan 00:12:24 00:13:37 12° 342° (NNW) 00:14:50 .
ISS 19 Jan 00:13:50 00:15:45 14° 338° (NNW) 00:17:40 437.550
VELOX 1 19 Jan 00:21:33 00:25:10 26° 69° (ENE) 00:28:48 145.980
POLYITAN 1 19 Jan 00:27:39 00:31:24 29° 97° (E) 00:35:07 437.675
PRISM 19 Jan 00:34:44 00:38:13 27° 290° (WNW) 00:41:40 437.425
YUBILEINY 19 Jan 00:37:54 00:46:44 78° 278° (W) 00:55:36 435.215
SPROUT 19 Jan 00:38:25 00:42:38 74° 75° (ENE) 00:46:53 437.525
O/OREOS (USA 219) 19 Jan 00:44:36 00:47:21 16° 100° (E) 00:50:04 437.305
NANOSAT C BR1 19 Jan 00:45:37 00:49:40 41° 99° (E) 00:53:41 145.865
AIST 2D 19 Jan 00:52:14 00:55:14 28° 288° (WNW) 00:58:13 435.315
QB50P2 19 Jan 00:56:41 01:00:59 74° 102° (ESE) 01:05:14 145.880/145.840
BUGSAT 1 19 Jan 01:08:51 01:10:58 13° 92° (E) 01:13:05 437.445
Oscar 19 19 Jan 01:20:53 01:23:02 12° 91° (E) 01:25:11 437.125/150
EO-79 19 Jan 01:28:41 01:32:52 52° 286° (WNW) 01:37:00 145.935-145.965
DUCHIFAT 1 19 Jan 01:30:46 01:35:00 67° 285° (WNW) 01:39:13 145.980
AO-91 19 Jan 01:32:30 01:35:41 19° 95° (E) 01:39:04 145.960
NO-84 19 Jan 01:57:38 02:00:31 64° 44° (NE) 02:03:34 435.350 FM
VELOX 1 19 Jan 01:57:51 02:01:30 26° 264° (W) 02:05:10 145.980
50 SAT 19 Jan 02:03:13 02:06:13 57° 76° (ENE) 02:09:16 437.505
POLYITAN 1 19 Jan 02:03:40 02:06:59 22° 292° (WNW) 02:10:17 437.675
UKube-1 19 Jan 02:15:03 02:19:13 53° 73° (ENE) 02:23:24 .
DX 1 19 Jan 02:21:13 02:25:32 75° 257° (WSW) 02:29:53 434.975-435.025
O/OREOS (USA 219) 19 Jan 02:22:03 02:26:21 43° 295° (WNW) 02:30:39 437.305
NANOSAT C BR1 19 Jan 02:22:23 02:25:00 16° 294° (WNW) 02:27:37 145.865
Gurwin Techsat 1B 19 Jan 02:23:08 02:28:09 40° 99° (E) 02:33:07 435.225
ITUPSAT 1 19 Jan 02:34:23 02:36:57 15° 63° (ENE) 02:39:31 437.325
YUBILEINY 19 Jan 02:40:40 02:45:03 14° 298° (WNW) 02:49:28 435.215
BUGSAT 1 19 Jan 02:42:27 02:46:31 46° 287° (WNW) 02:50:34 437.445
Oscar 19 19 Jan 02:57:39 03:02:49 69° 286° (WNW) 03:07:54 437.125/150
AO-91 19 Jan 03:08:03 03:12:08 39° 287° (WNW) 03:16:38 145.960
BEESAT 19 Jan 03:13:43 03:18:04 37° 70° (ENE) 03:22:26 436.000
CUBESAT XI-V 19 Jan 03:24:44 03:28:08 20° 67° (ENE) 03:31:33 437.345
nSIGHT-1 19 Jan 03:26:25 03:28:20 15° 22° (NNE) 03:30:15 .
MOZHAYETS 4 19 Jan 03:26:57 03:31:34 87° 79° (E) 03:36:15
ISS 19 Jan 03:29:28 03:31:08 13° 20° (NNE) 03:32:47 437.550
AO-7 19 Jan 03:47:37 03:55:10 36° 98° (E) 04:02:37 .
UKube-1 19 Jan 03:53:55 03:55:31 12° 268° (W) 03:57:06 .
ITAMSAT 1 19 Jan 03:59:08 04:03:05 22° 95° (E) 04:07:01 435.822/435.867
Gurwin Techsat 1B 19 Jan 04:03:38 04:07:49 24° 294° (WNW) 04:11:58 435.225
ITUPSAT 1 19 Jan 04:09:33 04:14:14 58° 259° (W) 04:18:58 437.325
BEESAT 19 Jan 04:52:19 04:55:54 21° 265° (W) 04:59:29 436.000
CUBESAT XI-V 19 Jan 05:00:50 05:05:13 38° 262° (W) 05:09:36 437.345
nSIGHT-1 19 Jan 05:01:42 05:04:53 89° 247° (WSW) 05:08:04 .
DOVE 4 19 Jan 05:03:02 05:06:27 22° 96° (E) 05:10:00 437.250
ISS 19 Jan 05:04:52 05:08:08 63° 38° (NE) 05:11:22 437.550
M-CUBED/EXP-1 PRIME 19 Jan 05:05:10 05:06:32 12° 98° (E) 05:07:52 437.505
KKS-1 19 Jan 05:14:09 05:18:18 42° 72° (ENE) 05:22:29 437.445
FALCONSAT 3 19 Jan 05:37:26 05:40:25 24° 159° (SSE) 05:43:25 435.103
STARS 19 Jan 05:37:30 05:41:14 29° 69° (ENE) 05:45:00 437.465
ITAMSAT 1 19 Jan 05:37:48 05:42:40 42° 290° (WNW) 05:47:32 435.822/435.867
AO-7 19 Jan 05:40:06 05:48:01 49° 296° (WNW) 05:55:54 .
LilacSat-2 19 Jan 06:03:20 06:05:03 13° 92° (E) 06:06:47 437.200
XW-2C 19 Jan 06:08:30 06:10:25 13° 93° (E) 06:12:18 145.795 - 145.815
HO-68 19 Jan 06:22:25 06:24:08 11° 88° (E) 06:25:50 435.675
M-CUBED/EXP-1 PRIME 19 Jan 06:38:06 06:41:03 29° 294° (WNW) 06:43:55 437.505
SO-50 19 Jan 06:39:52 06:44:17 68° 118° (ESE) 06:48:46 436.795
DOVE 4 19 Jan 06:40:22 06:44:06 29° 289° (WNW) 06:48:01 437.250
ISS 19 Jan 06:43:01 06:44:12 12° 232° (SW) 06:45:23 437.550
FO-29 19 Jan 06:44:16 06:47:23 14° 61° (ENE) 06:50:20 435.910
XW-2F 19 Jan 06:45:53 06:49:23 37° 98° (E) 06:52:50 145.980 - 146.000
KAITUO 1B 19 Jan 06:48:31 06:51:47 29° 97° (E) 06:55:01 145.475/437.950
KKS-1 19 Jan 06:52:22 06:55:02 16° 267° (W) 06:57:41 437.445
XW-2D 19 Jan 06:53:20 06:57:02 54° 100° (E) 07:00:41 145.860 - 145.880
CUTE-I 19 Jan 06:53:45 06:58:44 40° 98° (E) 07:03:43 437.470
STRAND 1 19 Jan 07:00:50 07:05:19 32° 69° (ENE) 07:09:49 437.568
NUDT-PHONESAT 19 Jan 07:03:42 07:07:14 44° 99° (E) 07:10:43 437.300
XW-2B 19 Jan 07:10:48 07:14:34 90° 156° (SSE) 07:18:18 145.730 - 145.750
CUBEBUG 2 19 Jan 07:10:53 07:13:47 16° 92° (E) 07:16:41 437.445
STARS 19 Jan 07:14:07 07:17:32 22° 265° (W) 07:20:58 437.465
FALCONSAT 3 19 Jan 07:15:35 07:19:09 51° 172° (S) 07:22:44 435.103
SEEDS 19 Jan 07:15:38 07:17:51 14° 92° (E) 07:20:03 437.485
CUTE 1.7 + AOD 2 19 Jan 07:22:18 07:26:00 29° 96° (E) 07:29:41 437.475
UWE-3 19 Jan 07:22:42 07:23:54 11° 89° (E) 07:25:06 435.000/436.395/437.385
LilacSat-2 19 Jan 07:35:58 07:39:28 37° 287° (WNW) 07:42:56 437.200
XW-2C 19 Jan 07:41:16 07:44:41 34° 287° (WNW) 07:48:05 145.795 - 145.815
ZACube-1 19 Jan 07:51:31 07:52:52 11° 90° (E) 07:54:12 437.345
AO-73 19 Jan 07:59:24 08:01:08 12° 90° (E) 08:02:51 145.935
XW-2A 19 Jan 08:01:39 08:03:16 13° 93° (E) 08:04:52 145.665 - 145.685
HO-68 19 Jan 08:05:39 08:12:51 77° 105° (ESE) 08:20:00 435.675
XW-2F 19 Jan 08:21:20 08:23:06 13° 293° (WNW) 08:24:53 145.980 - 146.000
SO-50 19 Jan 08:22:35 08:25:12 15° 317° (NW) 08:27:51 436.795
KAITUO 1B 19 Jan 08:23:14 08:25:29 16° 292° (WNW) 08:27:43 145.475/437.950
FO-29 19 Jan 08:24:36 08:31:44 86° 77° (ENE) 08:38:03 435.910
RS-15 19 Jan 08:32:27 08:43:55 48° 109° (ESE) 08:55:17 29.354- 29.394
Oscar 11 19 Jan 08:34:07 08:37:02 17° 93° (E) 08:39:55 .
CUTE-I 19 Jan 08:34:19 08:38:31 24° 294° (WNW) 08:42:44 437.470
AAUSAT CUBESAT 2 19 Jan 08:38:17 08:42:19 55° 100° (E) 08:46:19 437.432
NUDT-PHONESAT 19 Jan 08:39:39 08:40:36 11° 294° (WNW) 08:41:33 437.300
STRAND 1 19 Jan 08:40:12 08:44:28 27° 264° (W) 08:48:46 437.568
TIGRISAT 19 Jan 08:42:28 08:42:59 10° 62° (ENE) 08:43:31 435.000
CUBEBUG 2 19 Jan 08:46:02 08:50:36 48° 287° (WNW) 08:55:10 437.445
SEEDS 19 Jan 08:49:46 08:53:42 41° 287° (WNW) 08:57:35 437.485
FALCONSAT 3 19 Jan 08:54:28 08:58:02 49° 188° (S) 09:01:36 435.103
UNISAT 6 19 Jan 08:54:45 08:57:27 16° 65° (ENE) 09:00:11 437.425
UWE-3 19 Jan 08:56:06 09:00:46 67° 285° (WNW) 09:05:21 435.000/436.395/437.385
CUTE 1.7 + AOD 2 19 Jan 08:58:30 09:01:38 21° 292° (WNW) 09:04:44 437.475
ZACube-1 19 Jan 09:25:00 09:29:31 62° 285° (WNW) 09:33:57 437.345
XW-2A 19 Jan 09:33:05 09:35:59 27° 288° (WNW) 09:38:51 145.665 - 145.685
AO-73 19 Jan 09:33:13 09:37:42 58° 285° (WNW) 09:42:05 145.935
DELFI C3 19 Jan 09:37:27 09:39:42 15° 93° (E) 09:41:55 145.870
PRISM 19 Jan 09:48:49 09:50:31 12° 65° (ENE) 09:52:13 437.425
PCSat 19 Jan 09:49:29 09:52:34 15° 104° (ESE) 09:55:39 145.827
HO-68 19 Jan 09:54:55 09:59:46 20° 302° (WNW) 10:04:38 435.675
Oscar 11 19 Jan 10:09:18 10:13:15 36° 288° (WNW) 10:17:11 .
FO-29 19 Jan 10:13:44 10:17:11 14° 268° (W) 10:20:29 435.910
TIGRISAT 19 Jan 10:14:37 10:18:58 73° 258° (WSW) 10:23:28 435.000
AAUSAT CUBESAT 2 19 Jan 10:15:57 10:17:15 11° 295° (WNW) 10:18:31 437.432
UNISAT 6 19 Jan 10:29:34 10:33:44 44° 262° (W) 10:38:02 437.425
FALCONSAT 3 19 Jan 10:33:52 10:36:44 22° 203° (SSW) 10:39:36 435.103
Max Valier Satellite 19 Jan 10:42:50 10:46:32 64° 101° (E) 10:50:09 145.860
RS-15 19 Jan 10:44:20 10:56:18 54° 310° (NW) 11:08:08 29.354- 29.394
BEESAT 3 19 Jan 10:47:54 10:51:49 62° 118° (ESE) 10:55:46 437.485
YUBILEINY 19 Jan 10:50:26 10:58:51 49° 77° (ENE) 11:07:09 435.215
O/OREOS (USA 219) 19 Jan 10:54:44 10:58:24 24° 61° (ENE) 11:02:02 437.305
EO-88 19 Jan 11:06:50 11:10:28 85° 101° (E) 11:14:05 145.990 - 145.960
DELFI C3 19 Jan 11:10:57 11:14:31 35° 287° (WNW) 11:18:05 145.870
POLYITAN 1 19 Jan 11:19:05 11:21:58 18° 67° (ENE) 11:24:53 437.675
PRISM 19 Jan 11:21:23 11:25:20 49° 260° (W) 11:29:17 437.425
AIST 2D 19 Jan 11:23:37 11:27:07 69° 76° (ENE) 11:30:38 435.315
PCSat 19 Jan 11:29:59 11:35:21 65° 300° (WNW) 11:40:45 145.827
BEESAT 2 19 Jan 11:30:41 11:34:29 44° 116° (ESE) 11:38:21 435.950
NANOSAT C BR1 19 Jan 11:36:10 11:39:34 24° 69° (ENE) 11:43:00 145.865
QB50P2 19 Jan 11:47:18 11:51:16 42° 73° (ENE) 11:55:18 145.880/145.840
ESTCUBE 1 19 Jan 12:03:28 12:07:36 36° 98° (E) 12:11:43 437.505/2401.250
EO-79 19 Jan 12:18:43 12:22:56 89° 89° (E) 12:27:12 145.935-145.965
DUCHIFAT 1 19 Jan 12:20:14 12:24:23 69° 75° (ENE) 12:28:35 145.980
SPROUT 19 Jan 12:26:58 12:29:16 14° 92° (E) 12:31:31 437.525
BEESAT 3 19 Jan 12:27:46 12:29:43 13° 315° (NW) 12:31:41 437.485
LO-87 19 Jan 12:32:51 12:36:28 65° 284° (WNW) 12:40:03 145.935 - 145.965
O/OREOS (USA 219) 19 Jan 12:33:54 12:37:45 29° 257° (WSW) 12:41:36 437.305
Oscar 19 19 Jan 12:35:40 12:39:00 17° 63° (ENE) 12:42:20 437.125/150
YUBILEINY 19 Jan 12:47:47 12:55:16 34° 275° (W) 13:02:43 435.215
POLYITAN 1 19 Jan 12:53:34 12:57:27 35° 262° (W) 13:01:22 437.675
RS-15 19 Jan 13:03:57 13:12:32 21° 340° (NNW) 13:20:57 29.354- 29.394
BEESAT 2 19 Jan 13:09:44 13:12:25 17° 313° (NW) 13:15:07 435.950
NANOSAT C BR1 19 Jan 13:11:41 13:15:09 25° 264° (W) 13:18:39 145.865
PCSat 19 Jan 13:18:34 13:19:49 11° 319° (NW) 13:21:05 145.827
JUGNU 19 Jan 13:18:37 13:20:50 12° 178° (S) 13:23:03 437.505
QB50P2 19 Jan 13:24:55 13:27:13 14° 268° (W) 13:29:34 145.880/145.840
AO-85 19 Jan 13:26:16 13:30:11 76° 301° (WNW) 13:34:22 145.980
BUGSAT 1 19 Jan 13:29:47 13:33:50 86° 258° (WSW) 13:37:58 437.445
ESTCUBE 1 19 Jan 13:40:54 13:44:07 20° 293° (WNW) 13:47:20 437.505/2401.250
Gurwin Techsat 1B 19 Jan 13:42:27 13:47:37 56° 72° (ENE) 13:52:49 435.225
VELOX 1 19 Jan 13:48:18 13:52:40 64° 102° (ESE) 13:57:01 145.980
SPROUT 19 Jan 14:01:14 14:05:20 44° 287° (WNW) 14:09:25 437.525
AO-91 19 Jan 14:04:26 14:07:42 49° 260° (W) 14:11:02 145.960
DX 1 19 Jan 14:11:38 14:14:53 20° 95° (E) 14:18:06 434.975-435.025
Oscar 19 19 Jan 14:12:44 14:17:49 56° 259° (W) 14:22:57 437.125/150
AO-7 19 Jan 14:44:39 14:52:23 44° 63° (ENE) 15:00:08 .
50 SAT 19 Jan 14:50:35 14:53:40 54° 101° (E) 14:56:42 437.505
JUGNU 19 Jan 15:07:50 15:08:56 10° 188° (S) 15:10:01 437.505
SO-50 19 Jan 15:12:29 15:16:55 39° 53° (NE) 15:21:23 436.795
ITAMSAT 1 19 Jan 15:15:24 15:19:47 29° 67° (ENE) 15:24:12 435.822/435.867
RS-15 19 Jan 15:23:23 15:31:31 20° 17° (NNE) 15:39:22 29.354- 29.394
SRMSAT 19 Jan 15:23:57 15:25:44 11° 172° (S) 15:27:30 437.500
MOZHAYETS 4 19 Jan 15:24:14 15:27:53 23° 95° (E) 15:31:31
Gurwin Techsat 1B 19 Jan 15:24:33 15:27:52 17° 268° (W) 15:31:12 435.225
VELOX 1 19 Jan 15:27:07 15:28:32 11° 297° (WNW) 15:29:56 145.980
UKube-1 19 Jan 15:39:10 15:43:27 66° 285° (WNW) 15:47:42 .
DX 1 19 Jan 15:47:14 15:51:04 31° 290° (WNW) 15:54:54 434.975-435.025
M-CUBED/EXP-1 PRIME 19 Jan 15:47:48 15:50:47 18° 63° (ENE) 15:53:40 437.505
DOVE 4 19 Jan 16:07:40 16:10:38 18° 68° (ENE) 16:13:32 437.250
ITUPSAT 1 19 Jan 16:11:37 16:16:08 39° 98° (E) 16:20:38 437.325
AO-7 19 Jan 16:37:24 16:45:06 41° 260° (W) 16:52:52 .
BEESAT 19 Jan 16:52:26 16:57:13 75° 286° (WNW) 17:02:00 436.000
SO-50 19 Jan 16:53:27 16:57:09 23° 249° (WSW) 17:00:52 436.795
ITAMSAT 1 19 Jan 16:54:34 16:59:07 31° 263° (W) 17:03:43 435.822/435.867
CUBESAT XI-V 19 Jan 16:58:32 17:03:06 57° 100° (E) 17:07:35 437.345
MOZHAYETS 4 19 Jan 17:00:56 17:05:02 32° 290° (WNW) 17:09:06
SRMSAT 19 Jan 17:11:33 17:14:01 13° 183° (S) 17:16:28 437.500
NO-84 19 Jan 17:12:11 17:13:45 13° 126° (SE) 17:15:17 435.350 FM
M-CUBED/EXP-1 PRIME 19 Jan 17:20:43 17:24:53 39° 256° (WSW) 17:28:51 437.505
XW-2F 19 Jan 17:25:51 17:28:05 15° 68° (ENE) 17:30:20 145.980 - 146.000
KAITUO 1B 19 Jan 17:28:15 17:29:42 12° 67° (ENE) 17:31:10 145.475/437.950
XW-2D 19 Jan 17:33:10 17:36:04 21° 70° (ENE) 17:38:59 145.860 - 145.880
RS-15 19 Jan 17:36:31 17:47:52 50° 48° (NE) 17:58:36 29.354- 29.394
NUDT-PHONESAT 19 Jan 17:41:39 17:44:01 16° 68° (ENE) 17:46:24 437.300
DOVE 4 19 Jan 17:44:08 17:48:06 33° 262° (W) 17:51:56 437.250
ITUPSAT 1 19 Jan 17:50:06 17:53:39 21° 294° (WNW) 17:57:12 437.325
XW-2B 19 Jan 17:50:06 17:53:31 32° 72° (ENE) 17:56:56 145.730 - 145.750
CUBEBUG 2 19 Jan 18:09:40 18:10:16 10° 62° (ENE) 18:10:51 437.445
CUTE-I 19 Jan 18:13:48 18:18:59 56° 72° (ENE) 18:24:10 437.470
CUTE 1.7 + AOD 2 19 Jan 18:13:49 18:16:43 18° 68° (ENE) 18:19:39 437.475
LilacSat-2 19 Jan 18:15:14 18:19:05 78° 78° (ENE) 18:22:58 437.200
XW-2C 19 Jan 18:19:49 18:23:39 82° 77° (ENE) 18:27:31 145.795 - 145.815
HO-68 19 Jan 18:32:15 18:39:02 48° 68° (ENE) 18:45:49 435.675
CUBESAT XI-V 19 Jan 18:37:40 18:39:56 14° 296° (WNW) 18:42:11 437.345
PCSat 19 Jan 18:38:36 18:40:27 12° 42° (NE) 18:42:17 145.827
KKS-1 19 Jan 18:42:35 18:47:02 75° 284° (WNW) 18:51:28 437.445
NO-84 19 Jan 18:47:47 18:50:40 38° 319° (NW) 18:53:26 435.350 FM
XW-2F 19 Jan 18:58:25 19:01:53 33° 262° (W) 19:05:22 145.980 - 146.000
KAITUO 1B 19 Jan 18:59:40 19:03:15 42° 261° (W) 19:06:52 145.475/437.950
STARS 19 Jan 19:03:37 19:08:02 71° 102° (ESE) 19:12:26 437.465
BEESAT 3 19 Jan 19:06:23 19:09:27 21° 50° (NE) 19:12:28 437.485
XW-2D 19 Jan 19:06:57 19:10:05 24° 264° (W) 19:13:12 145.860 - 145.880
NUDT-PHONESAT 19 Jan 19:14:18 19:17:35 29° 263° (W) 19:20:54 437.300
STRAND 1 19 Jan 19:14:42 19:16:42 12° 90° (E) 19:18:42 437.568
XW-2B 19 Jan 19:25:25 19:27:44 15° 267° (W) 19:30:03 145.730 - 145.750
AAUSAT CUBESAT 2 19 Jan 19:26:38 19:30:11 28° 71° (ENE) 19:33:44 437.432
Oscar 11 19 Jan 19:28:40 19:30:17 12° 64° (ENE) 19:31:52 .
SEEDS 19 Jan 19:38:51 19:43:04 80° 259° (WSW) 19:47:18 437.485
CUBEBUG 2 19 Jan 19:41:51 19:46:10 72° 259° (W) 19:50:38 437.445
CUTE 1.7 + AOD 2 19 Jan 19:48:20 19:52:16 35° 263° (W) 19:56:12 437.475
RS-15 19 Jan 19:49:23 20:00:10 48° 251° (WSW) 20:10:29 29.354- 29.394
BEESAT 2 19 Jan 19:50:14 19:52:59 18° 48° (NE) 19:55:44 435.950
UWE-3 19 Jan 19:50:46 19:55:07 78° 77° (ENE) 19:59:40 435.000/436.395/437.385
CUTE-I 19 Jan 19:56:03 19:59:20 17° 268° (W) 20:02:39 437.470
XW-2A 19 Jan 20:01:21 20:04:44 62° 76° (ENE) 20:08:08 145.665 - 145.685
